Dewpoint
28 28 32 35 40 40 39 35 34 30 31 32 30 30 33 38 42 38 36 40 48 51 52 53 53 55 56 57 58 59 60 60 61 61 61 61 61 61
22 26 31 33 33 34 34 31 32 34 32 28 26 27 33 36 37 35 34 45 42 42 44 48 51 53 54 55 56 57 57 58 59 60 60 61 61 60
24 26 30 26 26 25 25 28 31 29 28 27 30 29 35 34 33 34 36 35 38 44 44 48 49 50 51 53 54 55 56 57 58 58 60 60 61 60
22 27 25 20 21 21 21 25 28 28 31 30 28 35 30 31 33 34 34 35 37 40 42 46 44 46 49 52 53 53 54 55 56 57 58 59 60 60
22 23 22 21 21 23 25 27 29 28 31 32 30 29 29 30 31 32 32 34 34 39 39 41 42 44 46 47 49 51 52 54 54 55 55 56 57 58
23 23 21 22 22 25 25 28 28 30 30 30 30 29 28 29 31 29 28 32 32 32 35 37 39 42 45 46 48 49 51 52 54 54 54 54 54 55
23 22 23 26 29 28 26 28 29 29 31 29 28 28 28 29 28 28 29 29 30 32 33 35 37 40 44 42 43 47 50 51 51 52 53 54 54 54
23 23 23 27 27 30 32 31 29 27 28 30 29 27 27 26 28 30 30 31 30 35 35 37 37 37 39 41 42 44 45 49 50 51 52 52 52 52
22 23 24 24 28 30 30 30 32 35 30 27 27 29 30 28 29 33 32 32 33 36 36 32 36 36 39 39 42 43 44 47 48 49 49 50 51 52
22 23 24 27 28 25 25 32 29 24 25 26 27 26 28 31 32 34 34 34 33 34 35 33 35 36 39 41 42 44 45 46 47 47 48 49 50 50
22 23 27 24 26 29 33 29 23 24 26 27 29 31 31 32 31 30 31 31 30 30 33 34 35 35 37 40 42 43 43 44 45 46 48 48 49 49
25 26 26 23 27 34 24 22 24 23 25 26 27 27 28 29 30 31 32 30 30 28 34 32 32 32 33 35 35 36 37 41 42 44 48 48 45 43
28 22 21 27 36 27 26 22 23 24 25 24 24 24 26 27 28 30 33 32 30 29 31 32 31 31 32 34 33 35 34 41 45 46 46 44 43 41
22 21 25 31 25 25 24 26 26 25 22 22 23 24 25 26 28 30 29 33 33 31 34 31 28 29 30 31 31 31 31 36 42 41 40 41 41 40
22 28 26 23 23 22 23 24 24 21 22 23 23 24 25 27 28 28 30 32 32 32 31 29 28 28 29 31 29 28 30 30 36 37 37 35 35 36
31 20 21 21 23 21 20 20 20 21 22 23 24 25 26 25 25 27 30 30 29 29 29 29 28 29 30 32 31 30 29 29 32 32 31 35 36 36
20 18 16 17 18 17 18 19 20 20 22 23 23 23 24 24 25 30 29 29 27 25 25 26 28 29 29 30 26 28 28 28 30 30 29 27 29 34
18 16 16 19 18 17 18 19 20 21 22 23 23 23 24 25 27 29 29 26 24 23 22 22 22 24 26 26 29 25 25 25 27 29 29 26 24 28
16 18 18 18 18 19 19 20 21 22 23 23 23 23 24 26 27 27 26 25 23 22 20 20 19 20 22 18 23 28 23 24 25 24 26 26 25 25
18 19 19 19 19 19 20 21 21 22 22 23 23 23 26 26 27 26 25 23 22 21 20 19 19 17 19 19 19 21 22 24 23 21 20 20 20 24
19 19 19 19 19 20 20 21 21 21 22 22 22 25 26 26 25 25 23 23 22 20 18 17 16 19 16 18 18 18 23 23 20 20 19 18 16 17
18 19 19 20 20 20 21 21 21 21 21 22 23 26 25 25 22 21 18 18 17 18 18 18 18 20 21 19 16 17 20 22 22 22 24 22 22 19
20 20 20 20 20 21 21 21 21 21 22 22 24 25 24 21 19 18 18 22 22 21 20 21 20 20 18 20 20 20 20 22 22 23 26 30 32 28
Lifted_Index
21 21 21 20 18 17 16 14 13 13 14 14 13 12 10 8 7 7 7 7 5 4 4 3 2 2 1 1 1 1 0 -0 -0 -1 -1 -2 -2 -2
22 21 21 20 19 17 16 14 13 12 12 12 12 11 10 9 9 9 8 7 6 6 5 4 3 2 2 2 1 1 1 0 0 -0 -1 -1 -2 -2
22 21 20 19 18 17 15 14 12 11 11 11 11 10 10 10 10 10 9 8 8 7 6 5 4 3 2 2 2 1 1 1 1 0 -0 -1 -1 -2
21 20 19 18 17 16 15 14 13 12 12 11 11 11 11 11 11 11 10 9 9 8 7 6 5 4 3 2 2 2 2 1 1 1 1 0 -0 -1
19 18 17 17 16 16 15 14 13 13 12 12 12 12 12 12 11 11 11 11 10 9 9 8 7 6 4 3 2 2 2 2 1 1 1 1 1 1
17 17 16 16 16 15 15 14 13 13 12 12 12 12 12 12 12 12 12 12 11 11 10 9 8 7 6 5 4 3 2 2 2 2 2 2 2 2
16 16 16 16 15 14 14 13 13 12 11 11 11 12 12 12 12 12 13 13 12 11 11 10 9 8 7 6 5 4 3 2 2 2 2 2 2 2
16 16 16 15 14 14 13 13 12 11 10 10 10 10 11 11 11 12 12 12 12 11 11 10 9 9 8 8 6 5 4 3 2 2 2 2 2 1
16 16 15 14 14 13 13 13 12 10 10 9 9 9 9 10 10 10 11 12 12 12 11 11 10 10 9 8 7 6 5 4 3 2 3 2 2 1
15 15 14 13 13 13 13 12 12 11 10 9 9 9 9 9 9 10 11 12 12 11 11 11 10 10 9 8 7 6 5 5 4 3 3 3 2 2
15 14 14 13 13 12 12 12 13 12 11 10 10 9 9 9 10 10 11 11 11 11 11 11 10 10 9 8 7 7 6 5 4 4 4 3 3 2
14 14 13 13 13 12 12 13 13 13 12 11 10 9 9 9 10 10 11 11 11 11 11 11 11 10 9 8 7 7 6 5 4 4 4 4 3 3
14 14 13 13 12 12 13 14 14 13 12 11 10 9 9 9 10 10 11 12 12 12 12 12 11 10 9 8 7 8 7 6 5 5 5 5 4 4
14 14 13 13 13 13 14 14 14 13 12 11 10 9 10 10 11 11 12 13 13 13 12 12 11 10 9 8 7 8 8 7 6 6 6 7 6 6
14 14 14 14 14 14 15 15 14 13 12 11 11 11 12 12 12 13 13 13 13 13 13 13 12 11 9 9 8 9 8 7 7 7 8 9 9 9
14 15 15 15 15 15 15 15 14 14 13 13 13 14 14 14 14 14 14 14 13 14 14 14 14 12 11 10 10 9 9 8 8 9 10 10 11 12
15 15 16 16 16 15 15 15 14 14 14 15 15 15 15 15 15 15 15 14 13 14 14 15 15 14 13 12 11 11 10 10 10 10 11 12 13 14
15 16 16 16 16 16 15 15 14 14 15 16 16 16 16 16 16 15 15 14 14 14 14 15 15 14 13 13 13 13 12 12 12 12 12 13 14 15
16 16 16 17 17 17 16 15 15 15 16 17 17 17 16 16 16 15 15 15 15 15 15 15 15 14 13 12 13 14 14 13 13 13 13 14 14 15
16 16 17 17 17 17 16 16 16 16 17 17 17 17 17 16 16 16 16 16 15 15 15 15 16 15 14 13 13 15 16 15 14 14 14 15 15 15
17 17 18 18 18 17 17 16 16 16 17 17 17 17 17 16 16 16 16 16 15 15 15 15 15 16 15 15 14 15 16 16 15 15 15 16 15 15
18 18 18 19 18 17 17 17 16 16 16 16 16 17 17 17 16 16 15 15 14 14 13 13 14 14 14 14 13 14 14 15 15 15 16 16 15 14
18 18 19 19 18 17 17 17 17 16 16 16 16 17 17 17 16 15 14 14 13 13 12 12 12 12 12 12 12 12 13 13 14 14 15 15 14 13